Wetterdaten: Montag, 08.09.2014
Datum Zeit Temp. A. Feuchte A. Luftdruck Regen Wind Richtung Richtung Sonnenschein ET UV Solar Taupunkt Windchill Windben Empfang
08.09.2014 00:15 15,1 C 90 % 1012,9 hPa 0,0 l/m 0,0 km/h (0 Bft) SO 142 0 min 0,000 mm 0,0 UV-I 0 W/m 13,5 C 15,1 C 0,0 km/h (0 Bft) 0,00 %
08.09.2014 00:30 14,9 C 91 % 1013,0 hPa 0,0 l/m 0,0 km/h (0 Bft) S-SO 167 0 min 0,000 mm 0,0 UV-I 0 W/m 13,4 C 14,9 C 0,0 km/h (0 Bft) 0,00 %
08.09.2014 00:45 14,8 C 92 % 1013,0 hPa 0,0 l/m 0,0 km/h (0 Bft) S-SO 168 0 min 0,000 mm 0,0 UV-I 0 W/m 13,5 C 14,8 C 0,0 km/h (0 Bft) 0,00 %
08.09.2014 01:00 14,9 C 91 % 1012,9 hPa 0,0 l/m 0,0 km/h (0 Bft) SO 140 0 min 0,000 mm 0,0 UV-I 0 W/m 13,4 C 14,9 C 0,0 km/h (0 Bft) 0,00 %
08.09.2014 01:15 14,6 C 92 % 1012,9 hPa 0,0 l/m 0,0 km/h (0 Bft) S-SO 147 0 min 0,000 mm 0,0 UV-I 0 W/m 13,3 C 14,6 C 0,0 km/h (0 Bft) 0,00 %
08.09.2014 01:30 14,6 C 93 % 1012,8 hPa 0,0 l/m 0,0 km/h (0 Bft) S-SW 203 0 min 0,000 mm 0,0 UV-I 0 W/m 13,5 C 14,6 C 0,0 km/h (0 Bft) 0,00 %
08.09.2014 01:45 14,5 C 93 % 1013,1 hPa 0,0 l/m 0,0 km/h (0 Bft) S-SW 193 0 min 0,000 mm 0,0 UV-I 0 W/m 13,4 C 14,5 C 0,0 km/h (0 Bft) 0,00 %
08.09.2014 02:00 14,3 C 94 % 1012,9 hPa 0,0 l/m 0,0 km/h (0 Bft) S-SW 206 0 min 0,000 mm 0,0 UV-I 0 W/m 13,3 C 14,3 C 0,0 km/h (0 Bft) 0,00 %
08.09.2014 02:15 13,9 C 95 % 1013,4 hPa 0,0 l/m 0,0 km/h (0 Bft) S 174 0 min 0,000 mm 0,0 UV-I 0 W/m 13,1 C 13,9 C 0,0 km/h (0 Bft) 0,00 %
08.09.2014 02:30 13,9 C 96 % 1013,3 hPa 0,0 l/m 0,0 km/h (0 Bft) SO 136 0 min 0,000 mm 0,0 UV-I 0 W/m 13,3 C 13,9 C 0,0 km/h (0 Bft) 0,00 %
08.09.2014 02:45 13,9 C 96 % 1013,4 hPa 0,0 l/m 0,0 km/h (0 Bft) S 178 0 min 0,000 mm 0,0 UV-I 0 W/m 13,3 C 13,9 C 0,0 km/h (0 Bft) 0,00 %
08.09.2014 03:00 13,5 C 98 % 1013,6 hPa 0,0 l/m 0,0 km/h (0 Bft) SO 127 0 min 0,000 mm 0,0 UV-I 0 W/m 13,2 C 13,5 C 0,0 km/h (0 Bft) 0,00 %
08.09.2014 03:15 13,6 C 97 % 1013,5 hPa 0,0 l/m 0,0 km/h (0 Bft) SO 127 0 min 0,000 mm 0,0 UV-I 0 W/m 13,1 C 13,6 C 0,0 km/h (0 Bft) 0,00 %
08.09.2014 03:30 13,8 C 97 % 1013,5 hPa 0,0 l/m 0,0 km/h (0 Bft) SO 139 0 min 0,000 mm 0,0 UV-I 0 W/m 13,3 C 13,8 C 0,0 km/h (0 Bft) 0,00 %
08.09.2014 03:45 13,8 C 98 % 1013,5 hPa 0,0 l/m 0,0 km/h (0 Bft) SO 136 0 min 0,000 mm 0,0 UV-I 0 W/m 13,5 C 13,8 C 0,0 km/h (0 Bft) 0,00 %
08.09.2014 04:00 13,8 C 98 % 1013,3 hPa 0,0 l/m 0,0 km/h (0 Bft) S-SW 208 0 min 0,000 mm 0,0 UV-I 0 W/m 13,5 C 13,8 C 0,0 km/h (0 Bft) 0,00 %
08.09.2014 04:15 13,4 C 99 % 1013,7 hPa 0,0 l/m 0,0 km/h (0 Bft) S 178 0 min 0,000 mm 0,0 UV-I 0 W/m 13,2 C 13,4 C 0,0 km/h (0 Bft) 0,00 %
08.09.2014 04:30 13,6 C 98 % 1013,4 hPa 0,0 l/m 0,0 km/h (0 Bft) S 179 0 min 0,000 mm 0,0 UV-I 0 W/m 13,3 C 13,6 C 0,0 km/h (0 Bft) 0,00 %
08.09.2014 04:45 13,3 C 99 % 1013,5 hPa 0,0 l/m 0,0 km/h (0 Bft) S 173 0 min 0,000 mm 0,0 UV-I 0 W/m 13,1 C 13,3 C 0,0 km/h (0 Bft) 0,00 %
08.09.2014 05:00 13,2 C 99 % 1013,7 hPa 0,0 l/m 0,0 km/h (0 Bft) SW 226 0 min 0,000 mm 0,0 UV-I 0 W/m 13,0 C 13,2 C 0,0 km/h (0 Bft) 0,00 %
08.09.2014 05:15 13,1 C 99 % 1013,8 hPa 0,0 l/m 0,0 km/h (0 Bft) S-SW 209 0 min 0,000 mm 0,0 UV-I 0 W/m 12,9 C 13,1 C 0,0 km/h (0 Bft) 0,00 %
08.09.2014 05:30 13,1 C 99 % 1013,7 hPa 0,0 l/m 0,0 km/h (0 Bft) SO 130 0 min 0,000 mm 0,0 UV-I 0 W/m 12,9 C 13,1 C 0,0 km/h (0 Bft) 0,00 %
08.09.2014 05:45 13,1 C 99 % 1013,7 hPa 0,0 l/m 0,0 km/h (0 Bft) SO 130 0 min 0,000 mm 0,0 UV-I 0 W/m 12,9 C 13,1 C 0,0 km/h (0 Bft) 0,00 %
08.09.2014 06:00 13,0 C 99 % 1013,9 hPa 0,0 l/m 0,0 km/h (0 Bft) O-SO 112 0 min 0,000 mm 0,0 UV-I 0 W/m 12,8 C 13,0 C 0,0 km/h (0 Bft) 0,00 %
08.09.2014 06:15 13,0 C 99 % 1013,8 hPa 0,0 l/m 0,0 km/h (0 Bft) SO 143 0 min 0,000 mm 0,0 UV-I 0 W/m 12,8 C 13,0 C 0,0 km/h (0 Bft) 0,00 %
08.09.2014 06:30 12,9 C 99 % 1014,0 hPa 0,0 l/m 0,0 km/h (0 Bft) O-SO 119 0 min 0,000 mm 0,0 UV-I 0 W/m 12,7 C 12,9 C 0,0 km/h (0 Bft) 0,00 %
08.09.2014 06:45 13,0 C 99 % 1014,0 hPa 0,0 l/m 0,0 km/h (0 Bft) SO 146 0 min 0,000 mm 1,0 UV-I 8 W/m 12,8 C 13,0 C 0,0 km/h (0 Bft) 0,00 %
08.09.2014 07:00 12,3 C 97 % 1014,3 hPa 0,0 l/m 0,0 km/h (0 Bft) SO 146 15 min 0,000 mm 1,0 UV-I 43 W/m 11,8 C 12,3 C 0,0 km/h (0 Bft) 0,00 %
08.09.2014 07:15 12,9 C 99 % 1014,1 hPa 0,0 l/m 0,0 km/h (0 Bft) O-NO 76 0 min 0,000 mm 1,0 UV-I 61 W/m 12,7 C 12,9 C 0,0 km/h (0 Bft) 0,00 %
08.09.2014 07:30 12,9 C 99 % 1014,3 hPa 0,0 l/m 0,0 km/h (0 Bft) O-SO 113 0 min 0,000 mm 1,0 UV-I 61 W/m 12,7 C 12,9 C 0,0 km/h (0 Bft) 0,00 %
08.09.2014 07:45 13,1 C 99 % 1014,3 hPa 0,0 l/m 0,0 km/h (0 Bft) NO 41 0 min 0,000 mm 1,0 UV-I 88 W/m 12,9 C 13,1 C 0,0 km/h (0 Bft) 0,00 %
08.09.2014 08:00 14,1 C 99 % 1014,1 hPa 0,0 l/m 0,0 km/h (0 Bft) O-NO 70 15 min 0,000 mm 2,0 UV-I 134 W/m 13,9 C 14,1 C 0,0 km/h (0 Bft) 0,00 %
08.09.2014 08:15 14,4 C 98 % 1014,2 hPa 0,0 l/m 0,0 km/h (0 Bft) N-NO 30 0 min 0,000 mm 2,0 UV-I 144 W/m 14,1 C 14,4 C 0,0 km/h (0 Bft) 0,00 %
08.09.2014 08:30 14,5 C 99 % 1014,4 hPa 0,0 l/m 0,0 km/h (0 Bft) W 275 0 min 0,000 mm 2,0 UV-I 146 W/m 14,3 C 14,5 C 0,0 km/h (0 Bft) 0,00 %
08.09.2014 08:45 14,1 C 98 % 1014,3 hPa 0,0 l/m 0,0 km/h (0 Bft) NO 52 15 min 0,000 mm 2,0 UV-I 208 W/m 13,8 C 14,1 C 4,0 km/h (1 Bft) 0,00 %
08.09.2014 09:00 14,9 C 98 % 1014,5 hPa 0,0 l/m 0,0 km/h (0 Bft) N-NW 348 0 min 0,000 mm 2,0 UV-I 174 W/m 14,6 C 14,9 C 0,0 km/h (0 Bft) 0,00 %
08.09.2014 09:15 15,1 C 97 % 1014,6 hPa 0,0 l/m 0,0 km/h (0 Bft) NO 55 0 min 0,000 mm 2,0 UV-I 188 W/m 14,6 C 15,1 C 4,0 km/h (1 Bft) 0,00 %
08.09.2014 09:30 15,1 C 95 % 1014,3 hPa 0,0 l/m 2,2 km/h (1 Bft) NO 41 15 min 0,000 mm 3,0 UV-I 269 W/m 14,3 C 15,1 C 4,0 km/h (1 Bft) 0,00 %
08.09.2014 09:45 15,7 C 91 % 1014,4 hPa 0,0 l/m 0,0 km/h (0 Bft) N-NO 21 0 min 0,000 mm 3,0 UV-I 212 W/m 14,2 C 15,7 C 4,0 km/h (1 Bft) 0,00 %
08.09.2014 10:00 15,6 C 91 % 1014,5 hPa 0,0 l/m 1,8 km/h (1 Bft) NO 40 0 min 0,000 mm 3,0 UV-I 258 W/m 14,1 C 15,6 C 4,0 km/h (1 Bft) 0,00 %
08.09.2014 10:15 17,1 C 82 % 1014,3 hPa 0,0 l/m 2,2 km/h (1 Bft) NO 36 0 min 0,000 mm 5,0 UV-I 301 W/m 14,0 C 17,1 C 4,0 km/h (1 Bft) 0,00 %
08.09.2014 10:30 16,9 C 83 % 1014,2 hPa 0,0 l/m 0,7 km/h (0 Bft) O 85 0 min 0,000 mm 5,0 UV-I 276 W/m 14,0 C 16,9 C 4,0 km/h (1 Bft) 0,00 %
08.09.2014 10:45 18,7 C 77 % 1013,9 hPa 0,0 l/m 0,7 km/h (0 Bft) O 82 15 min 0,000 mm 5,0 UV-I 446 W/m 14,6 C 18,7 C 4,0 km/h (1 Bft) 0,00 %
08.09.2014 11:00 20,9 C 68 % 1013,4 hPa 0,0 l/m 0,7 km/h (0 Bft) O-NO 70 15 min 0,000 mm 6,0 UV-I 521 W/m 14,8 C 20,9 C 0,0 km/h (0 Bft) 0,00 %
08.09.2014 11:15 20,1 C 73 % 1013,7 hPa 0,0 l/m 1,8 km/h (1 Bft) O-NO 64 15 min 0,000 mm 6,0 UV-I 459 W/m 15,1 C 20,1 C 7,9 km/h (2 Bft) 0,00 %
08.09.2014 11:30 21,2 C 66 % 1013,7 hPa 0,0 l/m 2,2 km/h (1 Bft) N-NO 32 15 min 0,000 mm 6,0 UV-I 483 W/m 14,6 C 21,2 C 4,0 km/h (1 Bft) 0,00 %
08.09.2014 11:45 21,5 C 67 % 1013,5 hPa 0,0 l/m 0,0 km/h (0 Bft) N-NO 23 15 min 0,000 mm 6,0 UV-I 506 W/m 15,1 C 21,5 C 7,9 km/h (2 Bft) 0,00 %
08.09.2014 12:00 21,4 C 65 % 1013,3 hPa 0,0 l/m 4,3 km/h (1 Bft) O 97 15 min 0,000 mm 6,0 UV-I 526 W/m 14,5 C 21,4 C 0,0 km/h (0 Bft) 0,00 %
08.09.2014 12:15 22,2 C 63 % 1013,0 hPa 0,0 l/m 2,2 km/h (1 Bft) NW 312 15 min 0,000 mm 6,0 UV-I 560 W/m 14,8 C 22,2 C 0,0 km/h (0 Bft) 0,00 %
08.09.2014 12:30 24,1 C 55 % 1012,8 hPa 0,0 l/m 1,8 km/h (1 Bft) N 353 15 min 0,000 mm 7,0 UV-I 599 W/m 14,5 C 24,1 C 0,0 km/h (0 Bft) 0,00 %
08.09.2014 12:45 25,0 C 54 % 1012,4 hPa 0,0 l/m 0,0 km/h (0 Bft) NW 311 15 min 0,000 mm 6,0 UV-I 633 W/m 15,0 C 25,0 C 4,0 km/h (1 Bft) 0,00 %
08.09.2014 13:00 27,1 C 49 % 1012,2 hPa 0,0 l/m 0,0 km/h (0 Bft) NO 40 15 min 0,000 mm 6,0 UV-I 646 W/m 15,4 C 27,1 C 4,0 km/h (1 Bft) 0,00 %
08.09.2014 13:15 26,4 C 59 % 1012,2 hPa 0,0 l/m 0,0 km/h (0 Bft) S-SW 193 15 min 0,000 mm 6,0 UV-I 667 W/m 17,7 C 26,4 C 4,0 km/h (1 Bft) 0,00 %
08.09.2014 13:30 26,0 C 53 % 1012,0 hPa 0,0 l/m 1,4 km/h (1 Bft) O-SO 102 15 min 0,000 mm 6,0 UV-I 683 W/m 15,7 C 26,0 C 0,0 km/h (0 Bft) 0,00 %
08.09.2014 13:45 26,6 C 56 % 1011,6 hPa 0,0 l/m 0,7 km/h (0 Bft) NO 36 15 min 0,000 mm 6,0 UV-I 699 W/m 17,1 C 26,6 C 0,0 km/h (0 Bft) 0,00 %
08.09.2014 14:00 27,2 C 44 % 1011,4 hPa 0,0 l/m 1,8 km/h (1 Bft) O 96 15 min 0,000 mm 6,0 UV-I 735 W/m 13,9 C 27,2 C 0,0 km/h (0 Bft) 0,00 %
08.09.2014 14:15 25,4 C 55 % 1011,5 hPa 0,0 l/m 0,0 km/h (0 Bft) NO 35 15 min 0,000 mm 5,0 UV-I 727 W/m 15,7 C 25,4 C 4,0 km/h (1 Bft) 0,00 %
08.09.2014 14:30 27,8 C 44 % 1011,3 hPa 0,0 l/m 0,0 km/h (0 Bft) O-NO 70 15 min 0,000 mm 3,0 UV-I 745 W/m 14,4 C 27,8 C 0,0 km/h (0 Bft) 0,00 %
08.09.2014 14:45 27,0 C 43 % 1011,2 hPa 0,0 l/m 0,0 km/h (0 Bft) N-NW 345 15 min 0,000 mm 3,0 UV-I 756 W/m 13,3 C 27,0 C 4,0 km/h (1 Bft) 0,00 %
08.09.2014 15:00 27,3 C 48 % 1011,0 hPa 0,0 l/m 0,4 km/h (0 Bft) SW 231 15 min 0,000 mm 0,0 UV-I 733 W/m 15,3 C 27,3 C 0,0 km/h (0 Bft) 0,00 %
08.09.2014 15:15 28,0 C 49 % 1011,0 hPa 0,0 l/m 0,0 km/h (0 Bft) NO 54 15 min 0,000 mm 1,0 UV-I 725 W/m 16,3 C 28,0 C 0,0 km/h (0 Bft) 0,00 %
08.09.2014 15:30 27,8 C 42 % 1010,9 hPa 0,0 l/m 0,4 km/h (0 Bft) NO 43 15 min 0,000 mm 1,0 UV-I 744 W/m 13,7 C 27,8 C 0,0 km/h (0 Bft) 0,00 %
08.09.2014 15:45 27,9 C 51 % 1010,7 hPa 0,3 l/m 0,0 km/h (0 Bft) O 85 0 min 0,000 mm 0,0 UV-I 92 W/m 16,8 C 27,9 C 0,0 km/h (0 Bft) 0,00 %
08.09.2014 16:00 24,9 C 54 % 1011,1 hPa 0,3 l/m 0,0 km/h (0 Bft) O 95 0 min 0,000 mm 2,0 UV-I 0 W/m 14,9 C 24,9 C 0,0 km/h (0 Bft) 0,00 %
08.09.2014 16:15 23,0 C 68 % 1011,2 hPa 0,0 l/m 0,0 km/h (0 Bft) W 276 0 min 0,000 mm 2,0 UV-I 1 W/m 16,8 C 23,0 C 0,0 km/h (0 Bft) 0,00 %
08.09.2014 16:30 22,1 C 59 % 1011,5 hPa 0,3 l/m 0,0 km/h (0 Bft) W 265 0 min 0,000 mm 2,0 UV-I 5 W/m 13,7 C 22,1 C 0,0 km/h (0 Bft) 0,00 %
08.09.2014 16:45 24,9 C 51 % 1011,2 hPa 0,3 l/m 0,0 km/h (0 Bft) O 88 0 min 0,000 mm 2,0 UV-I 163 W/m 14,1 C 24,9 C 4,0 km/h (1 Bft) 0,00 %
08.09.2014 17:00 25,0 C 50 % 1010,8 hPa 0,3 l/m 0,0 km/h (0 Bft) W-SW 256 15 min 0,000 mm 1,0 UV-I 288 W/m 13,8 C 25,0 C 0,0 km/h (0 Bft) 0,00 %
08.09.2014 17:15 27,3 C 43 % 1010,2 hPa 0,0 l/m 0,0 km/h (0 Bft) W-SW 258 15 min 0,000 mm 1,0 UV-I 430 W/m 13,6 C 27,3 C 0,0 km/h (0 Bft) 0,00 %
08.09.2014 17:30 27,3 C 42 % 1010,3 hPa 0,0 l/m 1,8 km/h (1 Bft) S 190 15 min 0,000 mm 1,0 UV-I 652 W/m 13,2 C 27,3 C 0,0 km/h (0 Bft) 0,00 %
08.09.2014 17:45 26,7 C 40 % 1010,3 hPa 0,0 l/m 0,0 km/h (0 Bft) S-SW 194 15 min 0,000 mm 1,0 UV-I 640 W/m 12,0 C 26,7 C 0,0 km/h (0 Bft) 0,00 %
08.09.2014 18:00 27,0 C 40 % 1010,4 hPa 0,0 l/m 0,0 km/h (0 Bft) S 186 15 min 0,000 mm 0,0 UV-I 532 W/m 12,2 C 27,0 C 0,0 km/h (0 Bft) 0,00 %
08.09.2014 18:15 26,2 C 48 % 1010,6 hPa 0,0 l/m 0,0 km/h (0 Bft) S-SW 193 15 min 0,000 mm 0,0 UV-I 402 W/m 14,3 C 26,2 C 0,0 km/h (0 Bft) 0,00 %
08.09.2014 18:30 25,1 C 52 % 1010,8 hPa 0,0 l/m 0,0 km/h (0 Bft) S-SW 193 15 min 0,000 mm 0,0 UV-I 287 W/m 14,5 C 25,1 C 0,0 km/h (0 Bft) 0,00 %
08.09.2014 18:45 23,7 C 62 % 1011,2 hPa 0,0 l/m 0,0 km/h (0 Bft) S-SW 197 15 min 0,000 mm 0,0 UV-I 147 W/m 16,0 C 23,7 C 0,0 km/h (0 Bft) 0,00 %
08.09.2014 19:00 22,1 C 66 % 1011,5 hPa 0,0 l/m 0,0 km/h (0 Bft) S 187 15 min 0,000 mm 0,0 UV-I 73 W/m 15,4 C 22,1 C 0,0 km/h (0 Bft) 0,00 %
08.09.2014 19:15 21,0 C 70 % 1011,6 hPa 0,0 l/m 0,0 km/h (0 Bft) SW 215 15 min 0,000 mm 0,0 UV-I 22 W/m 15,3 C 21,0 C 0,0 km/h (0 Bft) 0,00 %
08.09.2014 19:30 19,6 C 70 % 1012,1 hPa 0,0 l/m 0,0 km/h (0 Bft) S-SW 202 0 min 0,000 mm 0,0 UV-I 0 W/m 14,0 C 19,6 C 0,0 km/h (0 Bft) 0,00 %
08.09.2014 19:45 19,2 C 75 % 1012,3 hPa 0,0 l/m 0,0 km/h (0 Bft) S-SW 211 0 min 0,000 mm 0,0 UV-I 0 W/m 14,7 C 19,2 C 0,0 km/h (0 Bft) 0,00 %
08.09.2014 20:00 18,5 C 75 % 1012,4 hPa 0,0 l/m 0,0 km/h (0 Bft) S-SW 210 0 min 0,000 mm 0,0 UV-I 0 W/m 14,0 C 18,5 C 0,0 km/h (0 Bft) 0,00 %
08.09.2014 20:15 17,9 C 75 % 1012,7 hPa 0,0 l/m 0,0 km/h (0 Bft) SW 218 0 min 0,000 mm 0,0 UV-I 0 W/m 13,4 C 17,9 C 0,0 km/h (0 Bft) 0,00 %
08.09.2014 20:30 17,8 C 79 % 1012,8 hPa 0,0 l/m 0,0 km/h (0 Bft) SW 217 0 min 0,000 mm 0,0 UV-I 0 W/m 14,1 C 17,8 C 0,0 km/h (0 Bft) 0,00 %
08.09.2014 20:45 17,3 C 81 % 1013,0 hPa 0,0 l/m 0,0 km/h (0 Bft) SW 217 0 min 0,000 mm 0,0 UV-I 0 W/m 14,0 C 17,3 C 0,0 km/h (0 Bft) 0,00 %
08.09.2014 21:00 16,7 C 84 % 1013,1 hPa 0,0 l/m 0,0 km/h (0 Bft) SW 217 0 min 0,000 mm 0,0 UV-I 0 W/m 14,0 C 16,7 C 0,0 km/h (0 Bft) 0,00 %
08.09.2014 21:15 16,5 C 84 % 1013,3 hPa 0,0 l/m 0,0 km/h (0 Bft) S-SW 201 0 min 0,000 mm 0,0 UV-I 0 W/m 13,8 C 16,5 C 0,0 km/h (0 Bft) 0,00 %
08.09.2014 21:30 16,4 C 85 % 1013,1 hPa 0,0 l/m 0,0 km/h (0 Bft) W-NW 285 0 min 0,000 mm 0,0 UV-I 0 W/m 13,9 C 16,4 C 0,0 km/h (0 Bft) 0,00 %
08.09.2014 21:45 16,2 C 87 % 1013,5 hPa 0,0 l/m 0,0 km/h (0 Bft) W-SW 256 0 min 0,000 mm 0,0 UV-I 0 W/m 14,0 C 16,2 C 0,0 km/h (0 Bft) 0,00 %
08.09.2014 22:00 16,2 C 87 % 1013,5 hPa 0,0 l/m 0,0 km/h (0 Bft) W-SW 255 0 min 0,000 mm 0,0 UV-I 0 W/m 14,0 C 16,2 C 0,0 km/h (0 Bft) 0,00 %
08.09.2014 22:15 16,2 C 87 % 1013,3 hPa 0,0 l/m 0,0 km/h (0 Bft) SO 146 0 min 0,000 mm 0,0 UV-I 0 W/m 14,0 C 16,2 C 0,0 km/h (0 Bft) 0,00 %
08.09.2014 22:30 16,1 C 87 % 1013,5 hPa 0,0 l/m 0,0 km/h (0 Bft) S 183 0 min 0,000 mm 0,0 UV-I 0 W/m 13,9 C 16,1 C 0,0 km/h (0 Bft) 0,00 %
08.09.2014 22:45 15,8 C 90 % 1013,7 hPa 0,0 l/m 0,0 km/h (0 Bft) S 183 0 min 0,000 mm 0,0 UV-I 0 W/m 14,2 C 15,8 C 0,0 km/h (0 Bft) 0,00 %
08.09.2014 23:00 15,5 C 91 % 1013,9 hPa 0,0 l/m 0,0 km/h (0 Bft) S 183 0 min 0,000 mm 0,0 UV-I 0 W/m 14,0 C 15,5 C 0,0 km/h (0 Bft) 0,00 %
08.09.2014 23:15 15,4 C 90 % 1013,7 hPa 0,0 l/m 0,0 km/h (0 Bft) S 183 0 min 0,000 mm 0,0 UV-I 0 W/m 13,8 C 15,4 C 0,0 km/h (0 Bft) 0,00 %
08.09.2014 23:30 15,2 C 91 % 1013,7 hPa 0,0 l/m 0,0 km/h (0 Bft) S 183 0 min 0,000 mm 0,0 UV-I 0 W/m 13,7 C 15,2 C 0,0 km/h (0 Bft) 0,00 %
_ Min-Zeit 07:00 17:45 17:15 - 00:15 - - - - - - 07:00 07:00 00:15 00:15
Minimum _ 12,3 C 40 % 1010,2 hPa - 0,0 km/h (0 Bft) - - - - - - 11,8 C 12,3 C 0,0 km/h (0 Bft) 0,00 %
_ Max-Zeit 15:15 04:15 09:15 15:45 12:00 - - 07:00 00:15 12:30 14:45 13:15 15:15 11:15 00:15
Maximum _ 28,0 C 99 % 1014,6 hPa 0,3 l/m 4,3 km/h
O (1 Bft)
- - 15 min 0,000 mm 7,0 UV-I 756 W/m 17,7 C 28,0 C 7,9 km/h
O-NO (2 Bft)
0,00 %
Durchschnitt _ 18,5 C 78 % 1012,9 hPa #1,5 l/m 0,3 km/h (0 Bft) NO - #8:30 h #0,000 mm 3,4 UV-I 378 W/m 14,0 C 18,5 C 0,8 km/h (0 Bft) 0,00 %